Home > Weather > Breda > Past weeks

Flag for Netherlands Past Weather in Breda, Netherlands — Yesterday and Last 2 Weeks

Now
73 °F

Overcast.


Feels Like: 76 °F
Forecast: 58 / 74 °F
Wind: 10 mph from Northwest

Location: Gilze-Rijen

Current Time: Jul 24, 2016 at 8:31:20 PM

Latest Report: Jul 24, 2016 at 7:55 PM


Visibility: N/A

Pressure: 30.07 "Hg

Humidity: 69%

Dew Point: 63 °F

Location of BredaLocation

Past Weather in Breda — Graph

°F

Breda Temperature Yesterday

Maximum temperature yesterday: 79 °F (at 3:25 PM)
Minimum temperature yesterday: 64 °F (at 1:55 AM)
Average temperature yesterday: 71 °F

High & Low Weather Summary for the Past Weeks

 TemperatureHumidityPressure
High95 °F (Jul 20, 3:04 PM)100% (Jul 10, 5:55 AM)30.30 "Hg (Jul 10, 5:55 AM)
Low48 °F (Jul 14, 4:55 AM)32% (Jul 20, 2:25 PM)29.77 "Hg (Jul 10, 4:25 PM)
Average68 °F75%30.04 "Hg
* Reported Jul 9 7:25 PM — Jul 24 7:25 PM, Breda, Weather by CustomWeather, © 2016

Note: Actual official high and low records may vary slightly from our data, if they occured in-between our weather recording intervals... More about our weather records

Advertising

Breda Weather History for the Previous 24 Hours

Scroll right to see more
 ConditionsComfort  
Time TempWeatherWind HumidityBarometerVisibility
7:25 PM
Sun, Jul 24
77 °FOvercast.3 mph57%30.07 "HgN/A
6:55 PM77 °FOvercast.5 mph57%30.07 "HgN/A
6:25 PM79 °FMostly cloudy.3 mph51%30.07 "HgN/A
5:55 PM79 °FOvercast.5 mph51%30.07 "HgN/A
5:25 PM79 °FMore clouds than sun.3 mph51%30.07 "HgN/A
4:55 PM79 °FPassing clouds.5 mph54%30.09 "HgN/A
4:25 PM79 °FPassing clouds.3 mph58%30.09 "HgN/A
3:55 PM77 °FHigh level clouds.3 mph57%30.09 "HgN/A
3:25 PM79 °FPartly sunny.5 mph58%30.09 "HgN/A
2:55 PM77 °FScattered clouds.5 mph57%30.09 "HgN/A
2:25 PM77 °FScattered clouds.6 mph61%30.09 "HgN/A
1:55 PM73 °FPassing clouds.5 mph69%30.09 "HgN/A
1:25 PM73 °FScattered clouds.5 mph65%30.09 "HgN/A
12:55 PM75 °FPartly sunny.5 mph65%30.12 "HgN/A
12:25 PM72 °FScattered clouds.5 mph73%30.12 "HgN/A
11:59 AM70 °FScattered clouds.3 mph78%30.12 "Hg5 mi
11:55 AM72 °FHaze.3 mph73%30.12 "Hg5 mi
11:25 AM70 °FFog.3 mph78%30.12 "Hg4 mi
10:55 AM68 °FFog.5 mph83%30.12 "Hg4 mi
10:25 AM66 °FFog.5 mph88%30.12 "Hg4 mi
9:55 AM66 °FFog.5 mph88%30.12 "Hg3 mi
9:25 AM66 °FFog.5 mph88%30.12 "Hg3 mi
8:55 AM66 °FFog.6 mph88%30.12 "Hg3 mi
8:25 AM64 °FFog.5 mph94%30.09 "Hg3 mi
7:55 AM64 °FFog.3 mph94%30.09 "Hg3 mi
7:25 AM64 °FFog.3 mph88%30.09 "Hg3 mi
6:55 AM64 °FFog.3 mph94%30.09 "Hg3 mi
6:25 AM64 °FFog.2 mph94%30.09 "Hg3 mi
5:55 AM64 °FFog.1 mph94%30.09 "Hg3 mi
5:25 AM64 °FFog.3 mph94%30.12 "Hg3 mi
4:55 AM64 °FFog.5 mph94%30.09 "Hg3 mi
4:25 AM64 °FFog.3 mph94%30.09 "Hg2 mi
3:55 AM64 °FFog.3 mph94%30.09 "Hg3 mi
3:25 AM64 °FFog.5 mph94%30.12 "Hg3 mi
2:55 AM64 °FFog.5 mph94%30.12 "Hg2 mi
2:25 AM64 °FFog.8 mph94%30.12 "Hg3 mi
1:55 AM63 °FFog.6 mph100%30.12 "Hg4 mi
1:25 AM64 °FFog.7 mph94%30.12 "Hg4 mi
12:55 AM64 °FFog.6 mph94%30.12 "Hg4 mi
12:25 AM64 °FFog.2 mph94%30.12 "Hg5 mi
11:55 PM
Sat, Jul 23
66 °FMild.3 mph88%30.12 "HgN/A
11:25 PM64 °FMild.6 mph94%30.12 "HgN/A
10:55 PM64 °FMild.5 mph94%30.09 "HgN/A
10:25 PM68 °FMild.6 mph83%30.09 "HgN/A
9:55 PM68 °FMild.7 mph83%30.09 "HgN/A
9:25 PM70 °FPassing clouds.7 mph78%30.09 "HgN/A
8:55 PM72 °FPartly sunny.8 mph78%30.09 "HgN/A
8:25 PM73 °FMild.9 mph74%30.09 "HgN/A
Weather by CustomWeather, © 2016

See weather overviewHow to use our weather pages